Volk, WI

1:33 AM CST on November 24, 2017 (GMT -0600)
Volk

Weather History for KVOK - June, 2014

Change the Weather History Date:

Friday, June 27, 2014

  Actual Average Record
Temperature  
Mean Temperature 74 °F -  
Max Temperature 83 °F 77 °F 91 °F (2005)
Min Temperature 64 °F 62 °F 41 °F (2017)
Cooling Degree Days 8    
Growing Degree Days 24 (Base 50)    
Moisture  
Dew Point 70 °F    
Average Humidity 85    
Maximum Humidity 100    
Minimum Humidity 66    
Precipitation  
Precipitation 0.04 in - - ()
Sea Level Pressure  
Sea Level Pressure 29.93 in    
Wind  
Wind Speed 8 mph (SE)    
Max Wind Speed 16 mph    
Max Gust Speed 32 mph    
Visibility 9 miles    
Events Rain    
Averages and records for this station are not official NWS values.
T = Trace of Precipitation, MM = Missing Value Source: NWS Daily Summary

Daily Weather History Graph

Daily Weather History Graph

Search for Another Location

Airport or City:

Trip Planner

Search our weather history database for the weather conditions in past years. The results will help you decide how hot, cold, wet, or windy it might be!

Date:

Astronomy

Jun. 27, 2014 Rise Set
Actual Time 5:20 AM CDT 8:47 PM CDT
Civil Twilight 4:44 AM CDT 9:23 PM CDT
Nautical Twilight 3:56 AM CDT 10:11 PM CDT
Astronomical Twilight 2:56 AM CDT 11:11 PM CDT
Moon 5:54 AM CDT (6/27) 8:49 PM CDT (6/27)
Length of Visible Light 16h 39m
Length of Day
15h 27m
New Moon, 0% of the Moon is Illuminated
Jun 27
New Moon
Jul 5
First Quarter
Jul 12
Full
Jul 18
Last Quarter
Jul 26
New

Hourly Weather History & Observations

Time (CDT) Temp. Heat Index Dew Point Humidity Pressure Visibility Wind Dir Wind Speed Gust Speed Precip Events Conditions
12:58 AM 67.1 °F - 66.6 °F 98% 30.00 in 10.0 mi SE 6.9 mph - N/A   Partly Cloudy
1:58 AM 66.2 °F - 65.3 °F 97% 29.99 in 10.0 mi ESE 10.4 mph - N/A   Scattered Clouds
2:58 AM 65.1 °F - 64.6 °F 98% 29.99 in 10.0 mi ESE 6.9 mph - N/A   Clear
3:58 AM 64.0 °F - 64.0 °F 100% 29.98 in 10.0 mi East 5.8 mph - N/A   Clear
4:58 AM 64.4 °F - 62.2 °F 93% 29.98 in 10.0 mi ESE 6.9 mph - N/A   Scattered Clouds
5:58 AM 64.2 °F - 62.1 °F 93% 29.98 in 10.0 mi ESE 6.9 mph - N/A   Clear
6:58 AM 66.2 °F - 62.6 °F 88% 29.98 in 10.0 mi ESE 8.1 mph - N/A   Overcast
7:58 AM 69.8 °F - 66.2 °F 88% 29.98 in 10.0 mi SE 9.2 mph - N/A   Mostly Cloudy
8:58 AM 71.6 °F - 68.0 °F 88% 29.98 in 10.0 mi SE 8.1 mph - N/A   Mostly Cloudy
9:58 AM 77.0 °F - 69.8 °F 78% 29.97 in 10.0 mi ESE 5.8 mph - N/A   Mostly Cloudy
10:58 AM 78.8 °F - 69.8 °F 74% 29.95 in - SE 6.9 mph - N/A   Mostly Cloudy
11:58 AM 82.4 °F 86.3 °F 69.8 °F 66% 29.93 in 10.0 mi SSE 13.8 mph 20.7 mph N/A   Mostly Cloudy
12:58 PM 82.4 °F 86.3 °F 69.8 °F 66% 29.93 in 10.0 mi SSE 13.8 mph 20.7 mph N/A   Mostly Cloudy
1:58 PM 82.4 °F 87.2 °F 71.6 °F 70% 29.92 in 10.0 mi SE 9.2 mph - N/A   Mostly Cloudy
2:07 PM 82.4 °F 86.3 °F 69.8 °F 66% 29.91 in 9.0 mi SE 12.7 mph 20.7 mph N/A Rain Light Rain
2:18 PM 80.6 °F 85.4 °F 73.4 °F 79% 29.91 in 3.0 mi SSE 10.4 mph 18.4 mph N/A Rain Rain Showers
2:35 PM 78.8 °F - 75.2 °F 89% 29.91 in 8.0 mi SSW 6.9 mph - N/A   Mostly Cloudy
2:58 PM 80.6 °F 85.4 °F 73.4 °F 79% 29.91 in 10.0 mi SSE 16.1 mph 32.2 mph N/A   Mostly Cloudy
3:58 PM 82.0 °F 86.1 °F 70.7 °F 68% 29.89 in 10.0 mi SSE 11.5 mph 21.9 mph N/A   Clear
4:58 PM 83.3 °F 88.2 °F 71.2 °F 67% 29.88 in 10.0 mi SSE 9.2 mph - 0.00 in   Clear
5:54 PM 80.6 °F 84.6 °F 71.6 °F 74% 29.89 in 7.0 mi South 15.0 mph 19.6 mph N/A Rain Light Rain
5:58 PM 81.1 °F 85.8 °F 72.5 °F 75% 29.88 in 4.0 mi South 12.7 mph 19.6 mph 0.04 in Rain Heavy Rain
6:06 PM 78.8 °F - 75.2 °F 89% 29.88 in 9.0 mi SE 8.1 mph 18.4 mph N/A   Partly Cloudy
6:58 PM 77.7 °F - 75.4 °F 92% 29.89 in 10.0 mi SSE 2.3 mph - 0.00 in   Clear
7:58 PM 77.7 °F - 75.6 °F 93% 29.89 in 10.0 mi SE 3.5 mph - N/A   Clear
8:58 PM 75.0 °F - 75.0 °F 100% 29.90 in 10.0 mi ESE 3.5 mph - N/A   Clear
9:58 PM 72.5 °F - 72.5 °F 100% 29.92 in 10.0 mi SE 4.6 mph - N/A   Clear
10:58 PM 74.1 °F - 73.0 °F 96% 29.92 in 10.0 mi SSE 4.6 mph - N/A   Clear
11:58 PM 72.5 °F - 72.5 °F 100% 29.93 in 10.0 mi SE 4.6 mph - N/A   Partly Cloudy